Location: Seattle
(47.6060°N, 122.3310°W)
Time: 10:20:30
(UTC-08:00)

ISS - Visible Passes

Search period start: 29 January 2015 00:00
Search period end: 08 February 2015 00:00
Orbit: 402 x 410 km, 51.6° (Epoch: 28 January)

Date Brightness Start Highest point End Pass type
(mag) Time Alt. Az. Time Alt. Az. Time Alt. Az.
04 Feb -0.9 18:41:30 10° SSE 18:42:13 12° SE 18:42:13 12° SE visible
05 Feb -1.6 19:23:47 10° SW 19:25:28 25° SSW 19:25:28 25° SSW visible
06 Feb -1.9 18:32:17 10° SSW 18:34:58 24° SE 18:35:54 21° ESE visible
06 Feb -0.2 20:08:00 10° WSW 20:08:36 15° WSW 20:08:36 15° WSW visible
07 Feb -3.2 19:15:57 10° WSW 19:18:55 69° SSW 19:18:55 69° SSW visible
